Location: Little Chesterford
(52.0500°N, 0.1833°E)
Time: 11:54:50
(UTC+00:00)

Terra - Pass Details

Date: 26 September 2023
Orbit: 694 x 695 km, 98.1° (Epoch: 11 December)

Event Time Altitude Azimuth Distance (km) Brightness Sun altitude
Exits shadow 22:47:46 14° 301° (WNW) 1,910 4.5 -37.7°
Drops below altitude 10° 22:48:53 10° 314° (NW) 2,162 4.9 -37.8°
Sets 22:51:53 0° 334° (NNW) 3,086 6.1 -37.9°
